Location: Killam
(52.7910°N, 111.8608°W)
Time: 22:24:01
(UTC+00:00)

MOZHAYETS 4 - Visible Passes

Search period start: 12 March 2026 00:00
Search period end: 22 March 2026 00:00
Orbit: 643 x 658 km, 98.3° (Epoch: 12 March)

Date Brightness Start Highest point End Pass type
(mag) Time Alt. Az. Time Alt. Az. Time Alt. Az.
12 Mar 9.7 02:33:55 10° N 02:37:56 32° WNW 02:41:54 10° SW visible
12 Mar 10.8 10:27:29 10° E 10:29:52 14° NE 10:32:15 10° NNE visible
12 Mar 7.9 12:01:18 10° SSE 12:05:49 76° ENE 12:10:22 10° NNW visible
13 Mar 10.4 03:01:03 10° N 03:04:24 21° WNW 03:07:43 10° WSW visible
13 Mar 10.2 10:52:49 10° ESE 10:56:15 22° ENE 10:59:41 10° N visible
13 Mar 7.6 12:28:03 10° S 12:32:33 64° WSW 12:37:04 10° NNW visible
14 Mar 10.8 03:28:32 10° NNW 03:30:46 14° NW 03:33:00 10° W visible
14 Mar 9.5 11:18:40 10° SE 11:22:43 33° ENE 11:26:47 10° N visible
14 Mar 8.2 12:55:08 10° SSW 12:59:21 38° W 13:03:36 10° NNW visible
15 Mar 9.1 02:17:10 10° N 02:21:27 44° WNW 02:25:41 10° SW visible
15 Mar 11.1 10:12:27 10° ENE 10:13:32 11° NE 10:14:38 10° NE visible
15 Mar 8.5 11:44:52 10° SE 11:49:17 54° ENE 11:53:42 10° N visible
16 Mar 10.0 02:44:09 10° N 02:47:58 27° WNW 02:51:44 10° WSW visible
16 Mar 10.6 10:37:02 10° E 10:39:50 17° NE 10:42:41 10° NNE visible
16 Mar 7.7 12:11:23 10° SSE 12:15:55 90° SSW 12:20:29 10° NNW visible
17 Mar 10.7 03:11:22 10° NNW 03:14:23 18° NW 03:17:23 10° W visible
17 Mar 10.0 11:02:34 10° ESE 11:06:15 25° ENE 11:09:56 10° N visible
17 Mar 7.8 12:38:14 10° S 12:42:40 53° W 12:47:07 10° NNW visible
18 Mar 11.0 03:39:07 10° NNW 03:40:43 12° NW 03:42:18 10° WNW visible
18 Mar 9.2 11:28:32 10° SE 11:32:44 39° ENE 11:36:57 10° N visible
19 Mar 9.4 02:27:20 10° N 02:31:28 37° WNW 02:35:33 10° SW visible
19 Mar 11.0 10:21:33 10° ENE 10:23:28 13° NE 10:25:22 10° NNE visible
19 Mar 8.1 11:54:50 10° SSE 11:59:19 65° ENE 12:03:49 10° N visible
20 Mar 10.3 02:54:23 10° N 02:57:56 23° WNW 03:01:28 10° WSW visible
20 Mar 10.5 10:46:37 10° E 10:49:48 19° ENE 10:52:58 10° NNE visible
20 Mar 7.6 12:21:28 10° S 12:25:59 75° WSW 12:30:32 10° NNW visible
21 Mar 10.8 03:21:42 10° NNW 03:24:19 15° NW 03:26:55 10° W visible
21 Mar 9.8 11:12:19 10° ESE 11:16:13 29° ENE 11:20:07 10° N visible
21 Mar 8.0 12:48:26 10° S 12:52:45 44° W 12:57:05 10° NNW visible
